Regional Weather Roundup
Issued by NWS

Home | Current Version | Previous Version | Graphics & Text | Print | Product List | Glossary On
Versions: 1 2 3 4 5 6 7 8 9 10 11 12 13 14 15 16 17 18 19 20 21 22 23 24 25 26 27 28 29 30 31 32 33 34 35 36 37 38 39 40 41 42 43 44 45 46 47 48 49 50
000
ASUS45 KSLC 271310
RWRUT

UTAH REGIONAL WEATHER ROUNDUP
NATIONAL WEATHER SERVICE SALT LAKE CITY UT
600 AM MST FRI FEB 27 2015

UTZ001>011-023>025-271400-

NORTHERN UTAH

CITY           SKY/WX    TMP DP  RH WIND       PRES   REMARKS
BRIGHAM CITY   CLOUDY    29  24  83 NE7       29.84S WCI  21
HILL AFB       CLOUDY    29  20  69 E16       29.82S WCI  18
LOGAN          CLOUDY    26  21  81 E3        29.83S
OGDEN          CLOUDY    31  22  69 S9        29.82F WCI  23
PROVO AIRPORT  CLOUDY    27  25  93 E5        29.85F WCI  21
SALT LAKE CITY CLOUDY    31  25  78 S8        29.84S WCI  23
VERNAL         CLOUDY    23  15  71 NW5       29.87S WCI  17
WENDOVER       CLOUDY    36  27  69 CALM      29.83S
HEBER CITY     CLOUDY    23  19  86 CALM      29.84S
WEST JORDAN    CLOUDY    27  25  93 CALM      29.84F

$$

UTZ012>022-026-027-271400-

SOUTHERN/CENTRAL UTAH

CITY           SKY/WX    TMP DP  RH WIND       PRES   REMARKS
BLANDING       CLOUDY    26  26 100 CALM      29.91S
BRYCE CANYON   PTCLDY     9   4  80 W7        29.82S WCI  -2
CEDAR CITY     CLOUDY    24  21  88 CALM      29.81F
DELTA          CLOUDY    28  24  86 S6        29.84S WCI  21
HANKSVILLE     CLOUDY    25  25 100 CALM      29.86S VSB 1/4
MILFORD        CLEAR     22  18  85 W9        29.83F WCI  12
MOAB/CYNLANDS  CLOUDY    32  30  92 NW3       29.81S
PRICE          MOCLDY    19  13  77 NE7       29.81R WCI  10
ST GEORGE      PTSUNNY   43  28  56 S3        29.83S
KANAB          MOCLDY    32  23  69 N5        29.85F WCI  27

$$

REGIONAL REPORTS     COLORADO/ARIZONA

CITY           SKY/WX    TMP DP  RH WIND       PRES   REMARKS
CRAIG, CO        N/A    N/A N/A N/A MISG      29.88R
GRAND JUNCTION CLOUDY    31  30  96 SE7       29.82S WCI  24
RIFLE          CLOUDY    26  17  68 NW3       29.82R
MONTROSE       CLOUDY    22  17  81 SE8       29.83R WCI  12
CORTEZ         CLOUDY    28  27  96 CALM      29.85R
PAGE, AZ       CLOUDY    38  33  82 SE5       29.82S WCI  34
GRAND CANYON   MOCLDY    24  22  91 CALM      29.81S
KINGMAN        CLOUDY    39  27  62 E7        29.78R WCI  34
FLAGSTAFF      PTCLDY    20  16  84 CALM      29.82S

$$

REGIONAL REPORTS    NEVADA/IDAHO/WYOMING

CITY           SKY/WX    TMP DP  RH WIND       PRES   REMARKS
LAS VEGAS, NV  PTCLDY    48  27  44 S9        29.74F
ELY            CLOUDY    20  14  77 S8        29.81F WCI  10
ELKO           CLOUDY    25  22  88 S3        29.79F FOG
POCATELLO, ID  CLOUDY    28  26  92 CALM      29.81F
BURLEY         CLOUDY    33  29  85 CALM      29.79S
EVANSTON, WY   CLOUDY    12   9  87 E8        29.80F WCI   0
ROCK SPRINGS   PTCLDY     3  -2  79 E6        29.86S WCI  -8

$$


USA.gov is the U.S. government's official web portal to all federal, state and local government web resources and services.